Time,TemperatureF,DewpointF,PressureIn,WindDirection,WindDirectionDegrees,WindSpeedMPH,WindSpeedGustMPH,Humidity,HourlyPrecipIn,Conditions,Clouds,dailyrainin,SoftwareType,DateUTC
2013-08-31 00:05:00,63.1,55.4,30.14,NE,34,0.0,3.0,76,0.00,,,0.00,Wunderground v.1.15,2013-08-31 07:05:00,
2013-08-31 00:11:00,63.0,55.7,30.14,NNE,28,0.0,1.0,77,0.00,,,0.00,Wunderground v.1.15,2013-08-31 07:11:00,
2013-08-31 00:17:00,62.8,55.1,30.15,NNE,24,0.0,1.0,76,0.00,,,0.00,Wunderground v.1.15,2013-08-31 07:17:00,
2013-08-31 00:22:00,62.7,55.4,30.14,ENE,62,0.0,0.0,77,0.00,,,0.00,Wunderground v.1.15,2013-08-31 07:22:00,
2013-08-31 00:28:00,62.6,55.6,30.14,ENE,64,0.0,0.0,78,0.00,,,0.00,Wunderground v.1.15,2013-08-31 07:28:00,
2013-08-31 00:33:00,62.5,55.5,30.14,NE,55,0.0,2.0,78,0.00,,,0.00,Wunderground v.1.15,2013-08-31 07:33:00,
2013-08-31 00:39:00,62.3,55.4,30.14,North,355,1.0,2.0,78,0.00,,,0.00,Wunderground v.1.15,2013-08-31 07:39:00,
2013-08-31 00:45:00,62.2,55.3,30.14,NNE,19,0.0,0.0,78,0.00,,,0.00,Wunderground v.1.15,2013-08-31 07:45:00,
2013-08-31 00:50:00,62.1,55.2,30.14,NNE,26,0.0,1.0,78,0.00,,,0.00,Wunderground v.1.15,2013-08-31 07:50:00,
2013-08-31 00:56:00,62.1,55.5,30.14,NNE,15,2.0,2.0,79,0.00,,,0.00,Wunderground v.1.15,2013-08-31 07:56:00,
2013-08-31 01:01:00,62.1,55.2,30.14,NNE,18,0.0,1.0,78,0.00,,,0.00,Wunderground v.1.15,2013-08-31 08:01:00,
2013-08-31 01:07:00,62.0,55.4,30.14,ENE,74,0.0,1.0,79,0.00,,,0.00,Wunderground v.1.15,2013-08-31 08:07:00,
2013-08-31 01:13:00,62.0,55.8,30.14,NNE,19,1.0,1.0,80,0.00,,,0.00,Wunderground v.1.15,2013-08-31 08:13:00,
2013-08-31 01:18:00,62.0,55.8,30.14,NNE,26,0.0,1.0,80,0.00,,,0.00,Wunderground v.1.15,2013-08-31 08:18:00,
2013-08-31 01:24:00,61.9,55.3,30.13,ENE,59,1.0,1.0,79,0.00,,,0.00,Wunderground v.1.15,2013-08-31 08:24:00,
2013-08-31 01:29:00,61.8,55.2,30.13,NE,55,0.0,1.0,79,0.00,,,0.00,Wunderground v.1.15,2013-08-31 08:29:00,
2013-08-31 01:35:00,61.7,55.5,30.13,East,95,0.0,0.0,80,0.00,,,0.00,Wunderground v.1.15,2013-08-31 08:35:00,
2013-08-31 01:40:00,61.7,56.1,30.14,East,93,0.0,0.0,82,0.00,,,0.00,Wunderground v.1.15,2013-08-31 08:40:00,
2013-08-31 01:46:00,61.6,56.0,30.13,East,93,0.0,0.0,82,0.00,,,0.00,Wunderground v.1.15,2013-08-31 08:46:00,
2013-08-31 01:51:00,61.4,55.9,30.13,East,92,0.0,0.0,82,0.00,,,0.00,Wunderground v.1.15,2013-08-31 08:51:00,
2013-08-31 01:57:00,61.2,55.7,30.13,East,92,0.0,0.0,82,0.00,,,0.00,Wunderground v.1.15,2013-08-31 08:57:00,
2013-08-31 02:02:00,61.1,55.6,30.13,East,88,0.0,0.0,82,0.00,,,0.00,Wunderground v.1.15,2013-08-31 09:02:00,
2013-08-31 02:07:00,60.9,55.7,30.13,North,355,2.0,3.0,83,0.00,,,0.00,Wunderground v.1.15,2013-08-31 09:07:00,
2013-08-31 02:12:00,60.9,56.0,30.13,North,355,0.0,3.0,84,0.00,,,0.00,Wunderground v.1.15,2013-08-31 09:12:00,
2013-08-31 02:17:00,60.9,56.0,30.13,NNW,346,0.0,3.0,84,0.00,,,0.00,Wunderground v.1.15,2013-08-31 09:17:00,
2013-08-31 02:22:00,60.8,56.3,30.13,NNW,330,0.0,2.0,85,0.00,,,0.00,Wunderground v.1.15,2013-08-31 09:22:00,
2013-08-31 02:27:00,60.7,56.2,30.13,NW,314,2.0,2.0,85,0.00,,,0.00,Wunderground v.1.15,2013-08-31 09:27:00,
2013-08-31 02:32:00,60.6,56.1,30.13,WNW,296,1.0,3.0,85,0.00,,,0.00,Wunderground v.1.15,2013-08-31 09:32:00,
2013-08-31 02:37:00,60.4,55.9,30.13,North,355,0.0,4.0,85,0.00,,,0.00,Wunderground v.1.15,2013-08-31 09:37:00,
2013-08-31 02:42:00,60.3,55.8,30.13,NNW,344,0.0,1.0,85,0.00,,,0.00,Wunderground v.1.15,2013-08-31 09:42:00,
2013-08-31 02:47:00,60.2,56.0,30.13,NNW,336,0.0,3.0,86,0.00,,,0.00,Wunderground v.1.15,2013-08-31 09:47:00,
2013-08-31 02:52:00,60.1,55.6,30.13,NW,319,0.0,2.0,85,0.00,,,0.00,Wunderground v.1.15,2013-08-31 09:52:00,
2013-08-31 02:57:00,60.0,55.8,30.13,North,355,0.0,2.0,86,0.00,,,0.00,Wunderground v.1.15,2013-08-31 09:57:00,
2013-08-31 03:02:00,60.0,55.8,30.13,North,355,0.0,0.0,86,0.00,,,0.00,Wunderground v.1.15,2013-08-31 10:02:00,
2013-08-31 03:07:00,60.0,55.8,30.13,North,355,0.0,0.0,86,0.00,,,0.00,Wunderground v.1.15,2013-08-31 10:07:00,
2013-08-31 03:12:00,60.0,55.8,30.12,North,360,0.0,0.0,86,0.00,,,0.00,Wunderground v.1.15,2013-08-31 10:12:00,
2013-08-31 03:17:00,59.9,56.0,30.12,North,360,0.0,0.0,87,0.00,,,0.00,Wunderground v.1.15,2013-08-31 10:17:00,
2013-08-31 03:22:00,59.9,56.0,30.12,North,360,0.0,0.0,87,0.00,,,0.00,Wunderground v.1.15,2013-08-31 10:22:00,
2013-08-31 03:27:00,59.9,55.7,30.12,North,355,0.0,0.0,86,0.00,,,0.00,Wunderground v.1.15,2013-08-31 10:27:00,
2013-08-31 03:32:00,59.8,55.9,30.12,North,355,0.0,0.0,87,0.00,,,0.00,Wunderground v.1.15,2013-08-31 10:32:00,
2013-08-31 03:37:00,59.8,55.9,30.12,North,355,0.0,0.0,87,0.00,,,0.00,Wunderground v.1.15,2013-08-31 10:37:00,
2013-08-31 03:42:00,59.8,55.6,30.12,North,5,0.0,2.0,86,0.00,,,0.00,Wunderground v.1.15,2013-08-31 10:42:00,
2013-08-31 03:47:00,59.8,55.9,30.12,North,9,0.0,2.0,87,0.00,,,0.00,Wunderground v.1.15,2013-08-31 10:47:00,
2013-08-31 03:52:00,59.7,55.8,30.12,NW,324,0.0,1.0,87,0.00,,,0.00,Wunderground v.1.15,2013-08-31 10:52:00,
2013-08-31 03:57:00,59.5,55.6,30.12,NNW,335,0.0,2.0,87,0.00,,,0.00,Wunderground v.1.15,2013-08-31 10:57:00,
2013-08-31 04:02:00,59.4,55.5,30.12,NW,309,0.0,3.0,87,0.00,,,0.00,Wunderground v.1.15,2013-08-31 11:02:00,
2013-08-31 04:07:00,59.4,55.5,30.12,NNW,338,0.0,3.0,87,0.00,,,0.00,Wunderground v.1.15,2013-08-31 11:07:00,
2013-08-31 04:12:00,59.4,55.8,30.12,NNW,336,1.0,2.0,88,0.00,,,0.00,Wunderground v.1.15,2013-08-31 11:12:00,
2013-08-31 04:18:00,59.4,55.8,30.12,North,350,0.0,3.0,88,0.00,,,0.00,Wunderground v.1.15,2013-08-31 11:18:00,
2013-08-31 04:23:00,59.3,55.7,30.12,North,350,0.0,1.0,88,0.00,,,0.00,Wunderground v.1.15,2013-08-31 11:23:00,
2013-08-31 04:28:00,59.3,55.7,30.12,NNE,16,0.0,3.0,88,0.00,,,0.00,Wunderground v.1.15,2013-08-31 11:28:00,
2013-08-31 04:33:00,59.3,55.7,30.12,NNE,26,0.0,0.0,88,0.00,,,0.00,Wunderground v.1.15,2013-08-31 11:33:00,
2013-08-31 04:38:00,59.1,55.5,30.12,NNE,17,3.0,3.0,88,0.00,,,0.00,Wunderground v.1.15,2013-08-31 11:38:00,
2013-08-31 04:43:00,59.0,55.4,30.12,NNE,27,4.0,5.0,88,0.00,,,0.00,Wunderground v.1.15,2013-08-31 11:43:00,
2013-08-31 04:48:00,59.2,55.6,30.11,NNE,22,1.0,5.0,88,0.00,,,0.00,Wunderground v.1.15,2013-08-31 11:48:00,
2013-08-31 04:53:00,59.2,55.6,30.11,North,5,2.0,5.0,88,0.00,,,0.00,Wunderground v.1.15,2013-08-31 11:53:00,
2013-08-31 04:58:00,59.1,55.5,30.11,NNW,340,3.0,5.0,88,0.00,,,0.00,Wunderground v.1.15,2013-08-31 11:58:00,
2013-08-31 05:03:00,59.0,55.4,30.11,NNW,348,3.0,6.0,88,0.00,,,0.00,Wunderground v.1.15,2013-08-31 12:03:00,
2013-08-31 05:08:00,59.0,55.8,30.11,NW,320,1.0,6.0,89,0.00,,,0.00,Wunderground v.1.15,2013-08-31 12:08:00,
2013-08-31 05:13:00,59.0,55.8,30.11,NNW,344,3.0,4.0,89,0.00,,,0.00,Wunderground v.1.15,2013-08-31 12:13:00,
2013-08-31 05:18:00,59.0,55.8,30.11,NW,323,0.0,4.0,89,0.00,,,0.00,Wunderground v.1.15,2013-08-31 12:18:00,
2013-08-31 05:23:00,58.8,55.6,30.11,North,360,2.0,2.0,89,0.00,,,0.00,Wunderground v.1.15,2013-08-31 12:23:00,
2013-08-31 05:28:00,58.6,55.4,30.11,NNW,348,3.0,5.0,89,0.00,,,0.00,Wunderground v.1.15,2013-08-31 12:28:00,
2013-08-31 05:33:00,58.5,55.3,30.11,NNW,329,1.0,5.0,89,0.00,,,0.00,Wunderground v.1.15,2013-08-31 12:33:00,
2013-08-31 05:38:00,58.3,55.4,30.11,NNW,333,0.0,5.0,90,0.00,,,0.00,Wunderground v.1.15,2013-08-31 12:38:00,
2013-08-31 05:43:00,58.2,55.3,30.11,NW,318,2.0,4.0,90,0.00,,,0.00,Wunderground v.1.15,2013-08-31 12:43:00,
2013-08-31 05:48:00,58.2,55.3,30.11,NNW,340,0.0,4.0,90,0.00,,,0.00,Wunderground v.1.15,2013-08-31 12:48:00,
2013-08-31 05:53:00,58.2,55.3,30.11,NNE,30,1.0,5.0,90,0.00,,,0.00,Wunderground v.1.15,2013-08-31 12:53:00,
2013-08-31 05:58:00,58.2,55.3,30.11,NNE,25,0.0,5.0,90,0.00,,,0.00,Wunderground v.1.15,2013-08-31 12:58:00,
2013-08-31 06:03:00,58.2,55.3,30.11,NE,36,1.0,4.0,90,0.00,,,0.00,Wunderground v.1.15,2013-08-31 13:03:00,
2013-08-31 06:08:00,58.2,55.6,30.11,NNE,31,0.0,4.0,91,0.00,,,0.00,Wunderground v.1.15,2013-08-31 13:08:00,
2013-08-31 06:13:00,58.1,55.2,30.11,NE,34,0.0,1.0,90,0.00,,,0.00,Wunderground v.1.15,2013-08-31 13:13:00,
2013-08-31 06:18:00,58.0,55.1,30.11,NE,35,0.0,1.0,90,0.00,,,0.00,Wunderground v.1.15,2013-08-31 13:18:00,
2013-08-31 06:23:00,58.0,55.1,30.11,NNE,30,0.0,2.0,90,0.00,,,0.00,Wunderground v.1.15,2013-08-31 13:23:00,
2013-08-31 06:28:00,57.9,55.0,30.11,NE,35,0.0,2.0,90,0.00,,,0.00,Wunderground v.1.15,2013-08-31 13:28:00,
2013-08-31 06:33:00,57.9,55.0,30.11,NNE,26,0.0,0.0,90,0.00,,,0.00,Wunderground v.1.15,2013-08-31 13:33:00,
2013-08-31 06:38:00,57.9,55.0,30.11,North,11,0.0,4.0,90,0.00,,,0.00,Wunderground v.1.15,2013-08-31 13:38:00,
2013-08-31 06:43:00,57.9,55.3,30.10,NNE,21,0.0,2.0,91,0.00,,,0.00,Wunderground v.1.15,2013-08-31 13:43:00,
2013-08-31 06:48:00,58.0,55.4,30.10,North,9,0.0,2.0,91,0.00,,,0.00,Wunderground v.1.15,2013-08-31 13:48:00,
2013-08-31 06:53:00,57.9,55.3,30.10,NW,325,1.0,2.0,91,0.00,,,0.00,Wunderground v.1.15,2013-08-31 13:53:00,
2013-08-31 06:58:00,57.9,55.3,30.10,NNW,328,0.0,2.0,91,0.00,,,0.00,Wunderground v.1.15,2013-08-31 13:58:00,
2013-08-31 07:03:00,57.9,55.3,30.10,NNW,331,0.0,1.0,91,0.00,,,0.00,Wunderground v.1.15,2013-08-31 14:03:00,
2013-08-31 07:08:00,58.0,55.4,30.11,NW,325,0.0,1.0,91,0.00,,,0.00,Wunderground v.1.15,2013-08-31 14:08:00,
2013-08-31 07:13:00,58.1,55.5,30.11,North,355,0.0,0.0,91,0.00,,,0.00,Wunderground v.1.15,2013-08-31 14:13:00,
2013-08-31 07:18:00,58.3,55.7,30.10,North,360,0.0,0.0,91,0.00,,,0.00,Wunderground v.1.15,2013-08-31 14:18:00,
2013-08-31 07:23:00,58.5,55.9,30.10,North,360,0.0,0.0,91,0.00,,,0.00,Wunderground v.1.15,2013-08-31 14:23:00,
2013-08-31 07:29:00,58.7,56.1,30.10,North,360,0.0,0.0,91,0.00,,,0.00,Wunderground v.1.15,2013-08-31 14:29:00,
2013-08-31 07:34:00,59.0,56.4,30.10,North,5,1.0,3.0,91,0.00,,,0.00,Wunderground v.1.15,2013-08-31 14:34:00,
2013-08-31 07:39:00,59.0,56.1,30.10,NNE,14,0.0,3.0,90,0.00,,,0.00,Wunderground v.1.15,2013-08-31 14:39:00,
2013-08-31 07:44:00,59.0,56.1,30.10,North,355,1.0,2.0,90,0.00,,,0.00,Wunderground v.1.15,2013-08-31 14:44:00,
2013-08-31 07:49:00,59.0,56.1,30.10,NNW,340,2.0,3.0,90,0.00,,,0.00,Wunderground v.1.15,2013-08-31 14:49:00,
2013-08-31 07:54:00,59.1,55.9,30.10,NNW,333,0.0,1.0,89,0.00,,,0.00,Wunderground v.1.15,2013-08-31 14:54:00,
2013-08-31 07:59:00,59.4,56.2,30.10,NNW,342,2.0,3.0,89,0.00,,,0.00,Wunderground v.1.15,2013-08-31 14:59:00,
2013-08-31 08:04:00,59.6,56.4,30.10,North,5,0.0,4.0,89,0.00,,,0.00,Wunderground v.1.15,2013-08-31 15:04:00,
2013-08-31 08:09:00,59.7,56.1,30.10,North,350,1.0,5.0,88,0.00,,,0.00,Wunderground v.1.15,2013-08-31 15:09:00,
2013-08-31 08:14:00,59.9,56.3,30.10,North,5,0.0,3.0,88,0.00,,,0.00,Wunderground v.1.15,2013-08-31 15:14:00,
2013-08-31 08:19:00,60.1,56.5,30.10,NNE,17,0.0,5.0,88,0.00,,,0.00,Wunderground v.1.15,2013-08-31 15:19:00,
2013-08-31 08:24:00,60.3,56.4,30.10,NNW,338,2.0,5.0,87,0.00,,,0.00,Wunderground v.1.15,2013-08-31 15:24:00,
2013-08-31 08:29:00,60.5,56.6,30.09,NNW,331,4.0,5.0,87,0.00,,,0.00,Wunderground v.1.15,2013-08-31 15:29:00,
2013-08-31 08:34:00,60.6,56.4,30.09,NNW,346,3.0,5.0,86,0.00,,,0.00,Wunderground v.1.15,2013-08-31 15:34:00,
2013-08-31 08:39:00,60.8,56.6,30.09,NNW,344,1.0,5.0,86,0.00,,,0.00,Wunderground v.1.15,2013-08-31 15:39:00,
2013-08-31 08:44:00,60.9,56.7,30.09,NNW,328,2.0,6.0,86,0.00,,,0.00,Wunderground v.1.15,2013-08-31 15:44:00,
2013-08-31 08:49:00,61.1,56.9,30.09,North,351,1.0,6.0,86,0.00,,,0.00,Wunderground v.1.15,2013-08-31 15:49:00,
2013-08-31 08:54:00,61.3,57.1,30.09,NNW,329,2.0,6.0,86,0.00,,,0.00,Wunderground v.1.15,2013-08-31 15:54:00,
2013-08-31 08:59:00,61.4,56.8,30.09,NNW,348,3.0,7.0,85,0.00,,,0.00,Wunderground v.1.15,2013-08-31 15:59:00,
2013-08-31 09:04:00,61.6,57.0,30.09,NNW,341,4.0,6.0,85,0.00,,,0.00,Wunderground v.1.15,2013-08-31 16:04:00,
2013-08-31 09:09:00,61.8,57.2,30.09,NNE,27,2.0,6.0,85,0.00,,,0.00,Wunderground v.1.15,2013-08-31 16:09:00,
2013-08-31 09:14:00,62.1,57.5,30.09,NNW,346,1.0,5.0,85,0.00,,,0.00,Wunderground v.1.15,2013-08-31 16:14:00,
2013-08-31 09:19:00,62.4,57.5,30.09,NE,44,2.0,5.0,84,0.00,,,0.00,Wunderground v.1.15,2013-08-31 16:19:00,
2013-08-31 09:24:00,62.6,57.4,30.08,NNW,329,1.0,6.0,83,0.00,,,0.00,Wunderground v.1.15,2013-08-31 16:24:00,
2013-08-31 09:29:00,62.8,57.2,30.08,NNE,16,3.0,6.0,82,0.00,,,0.00,Wunderground v.1.15,2013-08-31 16:29:00,
2013-08-31 09:34:00,63.1,57.5,30.08,North,355,1.0,4.0,82,0.00,,,0.00,Wunderground v.1.15,2013-08-31 16:34:00,
2013-08-31 09:39:00,63.4,57.5,30.08,NNW,329,3.0,5.0,81,0.00,,,0.00,Wunderground v.1.15,2013-08-31 16:39:00,
2013-08-31 09:44:00,63.8,57.5,30.08,NW,308,1.0,5.0,80,0.00,,,0.00,Wunderground v.1.15,2013-08-31 16:44:00,
2013-08-31 09:49:00,64.2,57.5,30.08,NW,304,0.0,5.0,79,0.00,,,0.00,Wunderground v.1.15,2013-08-31 16:49:00,
2013-08-31 09:54:00,64.7,57.7,30.07,NNW,336,2.0,4.0,78,0.00,,,0.00,Wunderground v.1.15,2013-08-31 16:54:00,
2013-08-31 09:59:00,65.1,57.3,30.07,NNW,327,3.0,5.0,76,0.00,,,0.00,Wunderground v.1.15,2013-08-31 16:59:00,
2013-08-31 10:04:00,65.6,57.8,30.07,NW,325,1.0,6.0,76,0.00,,,0.00,Wunderground v.1.15,2013-08-31 17:04:00,
2013-08-31 10:09:00,66.1,57.9,30.07,WNW,301,3.0,7.0,75,0.00,,,0.00,Wunderground v.1.15,2013-08-31 17:09:00,
2013-08-31 10:14:00,66.5,57.6,30.07,NW,313,2.0,6.0,73,0.00,,,0.00,Wunderground v.1.15,2013-08-31 17:14:00,
2013-08-31 10:19:00,66.7,57.4,30.07,WNW,296,2.0,6.0,72,0.00,,,0.00,Wunderground v.1.15,2013-08-31 17:19:00,
2013-08-31 10:24:00,67.1,57.8,30.06,NNW,335,3.0,5.0,72,0.00,,,0.00,Wunderground v.1.15,2013-08-31 17:24:00,
2013-08-31 10:29:00,67.4,57.7,30.07,NW,321,0.0,5.0,71,0.00,,,0.00,Wunderground v.1.15,2013-08-31 17:29:00,
2013-08-31 10:34:00,67.7,57.6,30.06,NW,323,5.0,5.0,70,0.00,,,0.00,Wunderground v.1.15,2013-08-31 17:34:00,
2013-08-31 10:39:00,68.0,57.0,30.06,NW,311,0.0,5.0,68,0.00,,,0.00,Wunderground v.1.15,2013-08-31 17:39:00,
2013-08-31 10:44:00,68.6,57.2,30.06,NW,313,2.0,7.0,67,0.00,,,0.00,Wunderground v.1.15,2013-08-31 17:44:00,
2013-08-31 10:49:00,69.0,57.2,30.05,NW,318,2.0,7.0,66,0.00,,,0.00,Wunderground v.1.15,2013-08-31 17:49:00,
2013-08-31 10:54:00,69.4,57.5,30.05,WNW,290,5.0,7.0,66,0.00,,,0.00,Wunderground v.1.15,2013-08-31 17:54:00,
2013-08-31 10:59:00,69.8,57.5,30.05,NNW,339,5.0,9.0,65,0.00,,,0.00,Wunderground v.1.15,2013-08-31 17:59:00,
2013-08-31 11:04:00,70.2,57.9,30.05,NNW,330,5.0,7.0,65,0.00,,,0.00,Wunderground v.1.15,2013-08-31 18:04:00,
2013-08-31 11:09:00,70.4,58.1,30.05,NNE,16,4.0,10.0,65,0.00,,,0.00,Wunderground v.1.15,2013-08-31 18:09:00,
2013-08-31 11:14:00,70.7,58.8,30.04,NW,311,4.0,9.0,66,0.00,,,0.00,Wunderground v.1.15,2013-08-31 18:14:00,
2013-08-31 11:19:00,70.8,58.9,30.04,WNW,292,6.0,11.0,66,0.00,,,0.00,Wunderground v.1.15,2013-08-31 18:19:00,
2013-08-31 11:24:00,71.0,58.6,30.04,NW,326,4.0,10.0,65,0.00,,,0.00,Wunderground v.1.15,2013-08-31 18:24:00,
2013-08-31 11:29:00,71.0,58.6,30.04,NNW,335,1.0,10.0,65,0.00,,,0.00,Wunderground v.1.15,2013-08-31 18:29:00,
2013-08-31 11:34:00,71.2,58.8,30.04,NNW,333,5.0,10.0,65,0.00,,,0.00,Wunderground v.1.15,2013-08-31 18:34:00,
2013-08-31 11:39:00,71.4,59.0,30.04,North,351,5.0,10.0,65,0.00,,,0.00,Wunderground v.1.15,2013-08-31 18:39:00,
2013-08-31 11:44:00,71.8,59.4,30.03,NW,304,3.0,6.0,65,0.00,,,0.00,Wunderground v.1.15,2013-08-31 18:44:00,
2013-08-31 11:49:00,72.0,59.2,30.03,NNW,339,5.0,11.0,64,0.00,,,0.00,Wunderground v.1.15,2013-08-31 18:49:00,
2013-08-31 11:54:00,72.2,59.3,30.03,North,355,4.0,9.0,64,0.00,,,0.00,Wunderground v.1.15,2013-08-31 18:54:00,
2013-08-31 11:59:00,72.4,58.6,30.03,NW,319,2.0,12.0,62,0.00,,,0.00,Wunderground v.1.15,2013-08-31 18:59:00,
2013-08-31 12:04:00,72.6,58.8,30.03,NNW,331,6.0,10.0,62,0.00,,,0.00,Wunderground v.1.15,2013-08-31 19:04:00,
2013-08-31 12:10:00,72.7,58.9,30.03,North,349,0.0,5.0,62,0.00,,,0.00,Wunderground v.1.15,2013-08-31 19:10:00,
2013-08-31 12:15:00,73.0,58.8,30.02,WNW,295,4.0,10.0,61,0.00,,,0.00,Wunderground v.1.15,2013-08-31 19:15:00,
2013-08-31 12:20:00,73.2,58.9,30.02,North,355,9.0,9.0,61,0.00,,,0.00,Wunderground v.1.15,2013-08-31 19:20:00,
2013-08-31 12:25:00,73.4,59.1,30.02,North,5,6.0,10.0,61,0.00,,,0.00,Wunderground v.1.15,2013-08-31 19:25:00,
2013-08-31 12:30:00,73.7,58.9,30.02,NNW,344,10.0,10.0,60,0.00,,,0.00,Wunderground v.1.15,2013-08-31 19:30:00,
2013-08-31 12:35:00,73.6,58.9,30.01,North,5,2.0,11.0,60,0.00,,,0.00,Wunderground v.1.15,2013-08-31 19:35:00,
2013-08-31 12:40:00,73.7,58.9,30.01,NW,323,4.0,6.0,60,0.00,,,0.00,Wunderground v.1.15,2013-08-31 19:40:00,
2013-08-31 12:45:00,73.8,59.5,30.01,NE,40,7.0,11.0,61,0.00,,,0.00,Wunderground v.1.15,2013-08-31 19:45:00,
2013-08-31 12:50:00,73.7,58.9,30.01,NNW,336,3.0,7.0,60,0.00,,,0.00,Wunderground v.1.15,2013-08-31 19:50:00,
2013-08-31 12:55:00,73.8,59.0,30.01,NW,321,4.0,11.0,60,0.00,,,0.00,Wunderground v.1.15,2013-08-31 19:55:00,
2013-08-31 13:00:00,74.0,59.2,30.01,NNW,347,5.0,11.0,60,0.00,,,0.00,Wunderground v.1.15,2013-08-31 20:00:00,
2013-08-31 13:05:00,74.1,58.9,30.00,NNW,347,5.0,11.0,59,0.00,,,0.00,Wunderground v.1.15,2013-08-31 20:05:00,
2013-08-31 13:10:00,74.1,59.3,30.01,NNW,340,9.0,9.0,60,0.00,,,0.00,Wunderground v.1.15,2013-08-31 20:10:00,
2013-08-31 13:15:00,74.1,59.3,30.00,North,355,6.0,10.0,60,0.00,,,0.00,Wunderground v.1.15,2013-08-31 20:15:00,
2013-08-31 13:20:00,74.2,59.4,30.00,NNE,21,5.0,7.0,60,0.00,,,0.00,Wunderground v.1.15,2013-08-31 20:20:00,
2013-08-31 13:25:00,74.4,59.6,30.00,NNE,24,6.0,11.0,60,0.00,,,0.00,Wunderground v.1.15,2013-08-31 20:25:00,
2013-08-31 13:30:00,74.5,59.2,30.00,NW,308,5.0,7.0,59,0.00,,,0.00,Wunderground v.1.15,2013-08-31 20:30:00,
2013-08-31 13:35:00,74.4,59.6,30.00,NNE,22,9.0,11.0,60,0.00,,,0.00,Wunderground v.1.15,2013-08-31 20:35:00,
2013-08-31 13:40:00,74.6,59.8,30.00,NNW,342,10.0,10.0,60,0.00,,,0.00,Wunderground v.1.15,2013-08-31 20:40:00,
2013-08-31 13:45:00,74.7,60.4,30.00,North,9,8.0,11.0,61,0.00,,,0.00,Wunderground v.1.15,2013-08-31 20:45:00,
2013-08-31 13:50:00,74.7,60.4,29.99,NNW,346,6.0,7.0,61,0.00,,,0.00,Wunderground v.1.15,2013-08-31 20:50:00,
2013-08-31 13:55:00,74.9,60.5,29.99,NNW,346,11.0,11.0,61,0.00,,,0.00,Wunderground v.1.15,2013-08-31 20:55:00,
2013-08-31 14:00:00,75.0,60.2,29.98,NW,317,5.0,10.0,60,0.00,,,0.00,Wunderground v.1.15,2013-08-31 21:00:00,
2013-08-31 14:05:00,75.2,60.8,29.98,NNE,16,7.0,11.0,61,0.00,,,0.00,Wunderground v.1.15,2013-08-31 21:05:00,
2013-08-31 14:10:00,75.6,60.7,29.98,North,355,8.0,9.0,60,0.00,,,0.00,Wunderground v.1.15,2013-08-31 21:10:00,
2013-08-31 14:15:00,75.8,60.4,29.98,North,355,8.0,11.0,59,0.00,,,0.00,Wunderground v.1.15,2013-08-31 21:15:00,
2013-08-31 14:20:00,76.0,61.1,29.97,NNW,334,7.0,7.0,60,0.00,,,0.00,Wunderground v.1.15,2013-08-31 21:20:00,
2013-08-31 14:25:00,76.3,60.9,29.97,NNW,338,7.0,10.0,59,0.00,,,0.00,Wunderground v.1.15,2013-08-31 21:25:00,
2013-08-31 14:30:00,76.5,61.1,29.97,WNW,299,3.0,6.0,59,0.00,,,0.00,Wunderground v.1.15,2013-08-31 21:30:00,
2013-08-31 14:35:00,76.7,60.8,29.97,NE,44,6.0,11.0,58,0.00,,,0.00,Wunderground v.1.15,2013-08-31 21:35:00,
2013-08-31 14:40:00,76.7,60.8,29.97,North,360,5.0,10.0,58,0.00,,,0.00,Wunderground v.1.15,2013-08-31 21:40:00,
2013-08-31 14:45:00,76.8,61.9,29.97,North,351,5.0,10.0,60,0.00,,,0.00,Wunderground v.1.15,2013-08-31 21:45:00,
2013-08-31 14:50:00,77.0,61.6,29.97,NNW,346,4.0,6.0,59,0.00,,,0.00,Wunderground v.1.15,2013-08-31 21:50:00,
2013-08-31 14:55:00,77.0,61.1,29.97,NW,323,5.0,12.0,58,0.00,,,0.00,Wunderground v.1.15,2013-08-31 21:55:00,
2013-08-31 15:00:00,77.1,61.7,29.97,NNE,18,5.0,7.0,59,0.00,,,0.00,Wunderground v.1.15,2013-08-31 22:00:00,
2013-08-31 15:05:00,77.1,61.7,29.97,North,360,2.0,13.0,59,0.00,,,0.00,Wunderground v.1.15,2013-08-31 22:05:00,
2013-08-31 15:10:00,76.9,61.5,29.96,NNE,32,11.0,11.0,59,0.00,,,0.00,Wunderground v.1.15,2013-08-31 22:10:00,
2013-08-31 15:15:00,76.5,61.6,29.96,NNW,341,5.0,14.0,60,0.00,,,0.00,Wunderground v.1.15,2013-08-31 22:15:00,
2013-08-31 15:20:00,76.0,62.0,29.95,NNE,18,9.0,12.0,62,0.00,,,0.00,Wunderground v.1.15,2013-08-31 22:20:00,
2013-08-31 15:25:00,75.5,61.6,29.95,NNW,340,11.0,12.0,62,0.00,,,0.00,Wunderground v.1.15,2013-08-31 22:25:00,
2013-08-31 15:30:00,75.2,61.7,29.95,North,11,14.0,14.0,63,0.00,,,0.00,Wunderground v.1.15,2013-08-31 22:30:00,
2013-08-31 15:36:00,74.7,61.3,29.95,North,355,10.0,14.0,63,0.00,,,0.00,Wunderground v.1.15,2013-08-31 22:36:00,
2013-08-31 15:41:00,74.5,61.5,29.94,North,5,11.0,13.0,64,0.00,,,0.00,Wunderground v.1.15,2013-08-31 22:41:00,
2013-08-31 15:46:00,74.4,61.4,29.94,NNW,347,10.0,14.0,64,0.00,,,0.00,Wunderground v.1.15,2013-08-31 22:46:00,
2013-08-31 15:51:00,74.5,60.6,29.94,NNE,28,10.0,12.0,62,0.00,,,0.00,Wunderground v.1.15,2013-08-31 22:51:00,
2013-08-31 15:56:00,74.8,60.9,29.94,North,350,6.0,13.0,62,0.00,,,0.00,Wunderground v.1.15,2013-08-31 22:56:00,
2013-08-31 16:01:00,75.1,61.6,29.94,WNW,300,5.0,10.0,63,0.00,,,0.00,Wunderground v.1.15,2013-08-31 23:01:00,
2013-08-31 16:06:00,75.3,60.5,29.94,NNW,344,5.0,11.0,60,0.00,,,0.00,Wunderground v.1.15,2013-08-31 23:06:00,
2013-08-31 16:11:00,75.3,60.9,29.94,NNE,17,8.0,11.0,61,0.00,,,0.00,Wunderground v.1.15,2013-08-31 23:11:00,
2013-08-31 16:16:00,75.2,62.2,29.93,NE,39,5.0,11.0,64,0.00,,,0.00,Wunderground v.1.15,2013-08-31 23:16:00,
2013-08-31 16:21:00,75.1,61.6,29.93,NNE,13,8.0,11.0,63,0.00,,,0.00,Wunderground v.1.15,2013-08-31 23:21:00,
2013-08-31 16:26:00,74.8,61.4,29.93,NNE,28,10.0,11.0,63,0.00,,,0.00,Wunderground v.1.15,2013-08-31 23:26:00,
2013-08-31 16:31:00,74.7,61.7,29.93,NNE,24,9.0,9.0,64,0.00,,,0.00,Wunderground v.1.15,2013-08-31 23:31:00,
2013-08-31 16:36:00,74.7,62.6,29.93,NNE,15,6.0,11.0,66,0.00,,,0.00,Wunderground v.1.15,2013-08-31 23:36:00,
2013-08-31 16:41:00,74.7,62.6,29.92,NNE,33,5.0,7.0,66,0.00,,,0.00,Wunderground v.1.15,2013-08-31 23:41:00,
2013-08-31 16:46:00,74.6,62.1,29.92,NNE,13,7.0,11.0,65,0.00,,,0.00,Wunderground v.1.15,2013-08-31 23:46:00,
2013-08-31 16:51:00,74.5,62.0,29.92,NE,40,7.0,11.0,65,0.00,,,0.00,Wunderground v.1.15,2013-08-31 23:51:00,
2013-08-31 16:56:00,74.4,62.3,29.92,WNW,284,2.0,12.0,66,0.00,,,0.00,Wunderground v.1.15,2013-08-31 23:56:00,
2013-08-31 17:01:00,74.5,62.0,29.92,NNE,20,6.0,10.0,65,0.00,,,0.00,Wunderground v.1.15,2013-09-01 00:01:00,
2013-08-31 17:06:00,74.6,62.5,29.92,North,11,6.0,10.0,66,0.00,,,0.00,Wunderground v.1.15,2013-09-01 00:06:00,
2013-08-31 17:11:00,74.5,62.0,29.92,NE,46,8.0,10.0,65,0.00,,,0.00,Wunderground v.1.15,2013-09-01 00:11:00,
2013-08-31 17:16:00,74.5,62.4,29.92,NNE,28,9.0,10.0,66,0.00,,,0.00,Wunderground v.1.15,2013-09-01 00:16:00,
2013-08-31 17:21:00,74.5,62.4,29.92,North,5,11.0,11.0,66,0.00,,,0.00,Wunderground v.1.15,2013-09-01 00:21:00,
2013-08-31 17:26:00,74.4,61.9,29.92,NW,326,7.0,11.0,65,0.00,,,0.00,Wunderground v.1.15,2013-09-01 00:26:00,
2013-08-31 17:31:00,74.5,62.4,29.92,North,355,7.0,10.0,66,0.00,,,0.00,Wunderground v.1.15,2013-09-01 00:31:00,
2013-08-31 17:36:00,74.4,61.9,29.92,North,360,5.0,10.0,65,0.00,,,0.00,Wunderground v.1.15,2013-09-01 00:36:00,
2013-08-31 17:41:00,74.3,61.8,29.92,North,360,6.0,11.0,65,0.00,,,0.00,Wunderground v.1.15,2013-09-01 00:41:00,
2013-08-31 17:46:00,74.1,62.0,29.92,NNE,32,9.0,11.0,66,0.00,,,0.00,Wunderground v.1.15,2013-09-01 00:46:00,
2013-08-31 17:51:00,73.9,61.4,29.91,NNE,18,4.0,7.0,65,0.00,,,0.00,Wunderground v.1.15,2013-09-01 00:51:00,
2013-08-31 17:56:00,73.9,61.0,29.91,NNE,15,4.0,10.0,64,0.00,,,0.00,Wunderground v.1.15,2013-09-01 00:56:00,
2013-08-31 18:01:00,73.8,61.7,29.91,NE,34,4.0,10.0,66,0.00,,,0.00,Wunderground v.1.15,2013-09-01 01:01:00,
2013-08-31 18:06:00,73.8,62.2,29.91,NW,324,5.0,10.0,67,0.00,,,0.00,Wunderground v.1.15,2013-09-01 01:06:00,
2013-08-31 18:11:00,73.9,62.7,29.91,NNE,15,7.0,10.0,68,0.00,,,0.00,Wunderground v.1.15,2013-09-01 01:11:00,
2013-08-31 18:16:00,73.9,62.7,29.91,NNE,13,6.0,10.0,68,0.00,,,0.00,Wunderground v.1.15,2013-09-01 01:16:00,
2013-08-31 18:21:00,73.8,61.7,29.91,North,5,7.0,7.0,66,0.00,,,0.00,Wunderground v.1.15,2013-09-01 01:21:00,
2013-08-31 18:26:00,73.8,61.7,29.91,WNW,302,4.0,9.0,66,0.00,,,0.00,Wunderground v.1.15,2013-09-01 01:26:00,
2013-08-31 18:31:00,73.9,62.2,29.91,NNE,27,3.0,6.0,67,0.00,,,0.00,Wunderground v.1.15,2013-09-01 01:31:00,
2013-08-31 18:36:00,73.9,62.7,29.91,NNW,340,3.0,6.0,68,0.00,,,0.00,Wunderground v.1.15,2013-09-01 01:36:00,
2013-08-31 18:41:00,73.9,62.7,29.90,NE,49,4.0,4.0,68,0.00,,,0.00,Wunderground v.1.15,2013-09-01 01:41:00,
2013-08-31 18:46:00,73.9,63.1,29.90,North,11,4.0,7.0,69,0.00,,,0.00,Wunderground v.1.15,2013-09-01 01:46:00,
2013-08-31 18:51:00,73.9,62.2,29.90,NNW,346,4.0,5.0,67,0.00,,,0.00,Wunderground v.1.15,2013-09-01 01:51:00,
2013-08-31 18:56:00,73.8,62.2,29.90,NNE,15,3.0,7.0,67,0.00,,,0.00,Wunderground v.1.15,2013-09-01 01:56:00,
2013-08-31 19:01:00,73.8,62.2,29.90,NW,306,2.0,3.0,67,0.00,,,0.00,Wunderground v.1.15,2013-09-01 02:01:00,
2013-08-31 19:06:00,73.7,59.9,29.90,NNW,338,6.0,6.0,62,0.00,,,0.00,Wunderground v.1.15,2013-09-01 02:06:00,
2013-08-31 19:11:00,73.6,59.3,29.90,NW,325,4.0,5.0,61,0.00,,,0.00,Wunderground v.1.15,2013-09-01 02:11:00,
2013-08-31 19:16:00,73.5,59.2,29.90,NW,325,4.0,5.0,61,0.00,,,0.00,Wunderground v.1.15,2013-09-01 02:16:00,
2013-08-31 19:21:00,73.3,59.9,29.90,NNW,328,5.0,5.0,63,0.00,,,0.00,Wunderground v.1.15,2013-09-01 02:21:00,
2013-08-31 19:26:00,73.0,59.7,29.90,WNW,298,2.0,6.0,63,0.00,,,0.00,Wunderground v.1.15,2013-09-01 02:26:00,
2013-08-31 19:31:00,72.7,59.8,29.90,NNW,336,1.0,5.0,64,0.00,,,0.00,Wunderground v.1.15,2013-09-01 02:31:00,
2013-08-31 19:36:00,72.3,59.4,29.90,NNW,328,4.0,7.0,64,0.00,,,0.00,Wunderground v.1.15,2013-09-01 02:36:00,
2013-08-31 19:41:00,71.9,59.5,29.90,WNW,303,2.0,5.0,65,0.00,,,0.00,Wunderground v.1.15,2013-09-01 02:41:00,
2013-08-31 19:46:00,71.5,59.1,29.90,WNW,302,3.0,6.0,65,0.00,,,0.00,Wunderground v.1.15,2013-09-01 02:46:00,
2013-08-31 19:51:00,71.3,59.8,29.90,NW,306,4.0,5.0,67,0.00,,,0.00,Wunderground v.1.15,2013-09-01 02:51:00,
2013-08-31 19:56:00,70.9,59.4,29.90,NNW,343,4.0,6.0,67,0.00,,,0.00,Wunderground v.1.15,2013-09-01 02:56:00,
2013-08-31 20:01:00,70.6,59.1,29.90,NW,326,1.0,4.0,67,0.00,,,0.00,Wunderground v.1.15,2013-09-01 03:01:00,
2013-08-31 20:06:00,70.4,59.3,29.90,WNW,288,1.0,4.0,68,0.00,,,0.00,Wunderground v.1.15,2013-09-01 03:06:00,
2013-08-31 20:11:00,70.2,59.1,29.90,NNW,332,3.0,5.0,68,0.00,,,0.00,Wunderground v.1.15,2013-09-01 03:11:00,
2013-08-31 20:16:00,69.9,58.9,29.90,NW,317,5.0,5.0,68,0.00,,,0.00,Wunderground v.1.15,2013-09-01 03:16:00,
2013-08-31 20:21:00,69.7,59.1,29.90,NW,326,0.0,5.0,69,0.00,,,0.00,Wunderground v.1.15,2013-09-01 03:21:00,
2013-08-31 20:26:00,69.5,58.9,29.90,North,355,5.0,5.0,69,0.00,,,0.00,Wunderground v.1.15,2013-09-01 03:26:00,
2013-08-31 20:31:00,69.3,59.1,29.91,NW,306,3.0,3.0,70,0.00,,,0.00,Wunderground v.1.15,2013-09-01 03:31:00,
2013-08-31 20:36:00,69.1,58.9,29.91,NNW,333,5.0,5.0,70,0.00,,,0.00,Wunderground v.1.15,2013-09-01 03:36:00,
2013-08-31 20:41:00,68.9,59.1,29.90,WNW,295,2.0,3.0,71,0.00,,,0.00,Wunderground v.1.15,2013-09-01 03:41:00,
2013-08-31 20:46:00,68.8,59.0,29.90,North,350,0.0,5.0,71,0.00,,,0.00,Wunderground v.1.15,2013-09-01 03:46:00,
2013-08-31 20:51:00,68.6,59.2,29.91,NNW,333,1.0,2.0,72,0.00,,,0.00,Wunderground v.1.15,2013-09-01 03:51:00,
2013-08-31 20:56:00,68.5,59.9,29.90,NW,321,0.0,6.0,74,0.00,,,0.00,Wunderground v.1.15,2013-09-01 03:56:00,
2013-08-31 21:01:00,68.4,59.4,29.91,NNW,344,0.0,1.0,73,0.00,,,0.00,Wunderground v.1.15,2013-09-01 04:01:00,
2013-08-31 21:02:00,68.3,59.3,29.91,North,355,3.0,3.0,73,0.00,,,0.00,Wunderground v.1.15,2013-09-01 04:02:00,
2013-08-31 21:07:00,68.1,59.1,29.91,NW,324,1.0,4.0,73,0.00,,,0.00,Wunderground v.1.15,2013-09-01 04:07:00,
2013-08-31 21:12:00,68.0,59.0,29.91,NW,325,0.0,4.0,73,0.00,,,0.00,Wunderground v.1.15,2013-09-01 04:12:00,
2013-08-31 21:17:00,67.9,59.3,29.91,NNW,348,0.0,5.0,74,0.00,,,0.00,Wunderground v.1.15,2013-09-01 04:17:00,
2013-08-31 21:22:00,67.7,59.1,29.91,NW,306,3.0,4.0,74,0.00,,,0.00,Wunderground v.1.15,2013-09-01 04:22:00,
2013-08-31 21:27:00,67.6,58.6,29.91,North,5,4.0,5.0,73,0.00,,,0.00,Wunderground v.1.15,2013-09-01 04:27:00,
2013-08-31 21:32:00,67.5,58.9,29.91,NW,309,1.0,1.0,74,0.00,,,0.00,Wunderground v.1.15,2013-09-01 04:32:00,
2013-08-31 21:37:00,67.4,58.8,29.91,NNW,329,0.0,4.0,74,0.00,,,0.00,Wunderground v.1.15,2013-09-01 04:37:00,
2013-08-31 21:42:00,67.3,58.7,29.91,WNW,302,0.0,0.0,74,0.00,,,0.00,Wunderground v.1.15,2013-09-01 04:42:00,
2013-08-31 21:47:00,67.2,58.2,29.91,NW,306,0.0,0.0,73,0.00,,,0.00,Wunderground v.1.15,2013-09-01 04:47:00,
2013-08-31 21:52:00,67.2,58.6,29.91,NW,326,0.0,0.0,74,0.00,,,0.00,Wunderground v.1.15,2013-09-01 04:52:00,
2013-08-31 21:57:00,67.1,58.5,29.91,NNW,329,0.0,0.0,74,0.00,,,0.00,Wunderground v.1.15,2013-09-01 04:57:00,
2013-08-31 22:02:00,67.1,58.5,29.91,NW,319,0.0,0.0,74,0.00,,,0.00,Wunderground v.1.15,2013-09-01 05:02:00,
2013-08-31 22:07:00,67.0,58.8,29.91,NNW,340,0.0,3.0,75,0.00,,,0.00,Wunderground v.1.15,2013-09-01 05:07:00,
2013-08-31 22:12:00,66.9,58.3,29.91,NW,313,0.0,4.0,74,0.00,,,0.00,Wunderground v.1.15,2013-09-01 05:12:00,
2013-08-31 22:17:00,66.8,58.6,29.91,NW,321,0.0,4.0,75,0.00,,,0.00,Wunderground v.1.15,2013-09-01 05:17:00,
2013-08-31 22:22:00,66.8,58.6,29.91,NNE,15,0.0,1.0,75,0.00,,,0.00,Wunderground v.1.15,2013-09-01 05:22:00,
2013-08-31 22:27:00,66.6,58.4,29.91,NNW,337,0.0,4.0,75,0.00,,,0.00,Wunderground v.1.15,2013-09-01 05:27:00,
2013-08-31 22:32:00,66.5,58.7,29.91,NNW,329,0.0,3.0,76,0.00,,,0.00,Wunderground v.1.15,2013-09-01 05:32:00,
2013-08-31 22:37:00,66.4,58.6,29.90,WNW,295,2.0,5.0,76,0.00,,,0.00,Wunderground v.1.15,2013-09-01 05:37:00,
2013-08-31 22:43:00,66.4,58.6,29.91,NW,319,0.0,4.0,76,0.00,,,0.00,Wunderground v.1.15,2013-09-01 05:43:00,
2013-08-31 22:48:00,66.3,58.5,29.91,NNW,327,0.0,4.0,76,0.00,,,0.00,Wunderground v.1.15,2013-09-01 05:48:00,
2013-08-31 22:53:00,66.2,58.4,29.91,NW,314,0.0,2.0,76,0.00,,,0.00,Wunderground v.1.15,2013-09-01 05:53:00,
2013-08-31 22:58:00,66.1,58.7,29.91,NNW,338,0.0,2.0,77,0.00,,,0.00,Wunderground v.1.15,2013-09-01 05:58:00,
2013-08-31 23:03:00,66.1,59.4,29.91,NW,311,0.0,0.0,79,0.00,,,0.00,Wunderground v.1.15,2013-09-01 06:03:00,
2013-08-31 23:08:00,66.0,58.9,29.91,NW,311,0.0,0.0,78,0.00,,,0.00,Wunderground v.1.15,2013-09-01 06:08:00,
2013-08-31 23:13:00,65.9,58.8,29.91,NW,311,0.0,0.0,78,0.00,,,0.00,Wunderground v.1.15,2013-09-01 06:13:00,
2013-08-31 23:18:00,65.8,59.1,29.91,NW,311,0.0,0.0,79,0.00,,,0.00,Wunderground v.1.15,2013-09-01 06:18:00,
2013-08-31 23:23:00,65.8,59.5,29.90,NW,311,0.0,0.0,80,0.00,,,0.00,Wunderground v.1.15,2013-09-01 06:23:00,
2013-08-31 23:28:00,65.6,59.3,29.90,NW,311,0.0,0.0,80,0.00,,,0.00,Wunderground v.1.15,2013-09-01 06:28:00,
2013-08-31 23:33:00,65.6,59.3,29.90,NW,311,0.0,0.0,80,0.00,,,0.00,Wunderground v.1.15,2013-09-01 06:33:00,
2013-08-31 23:38:00,65.4,59.4,29.90,NW,311,0.0,0.0,81,0.00,,,0.00,Wunderground v.1.15,2013-09-01 06:38:00,
2013-08-31 23:43:00,65.2,58.9,29.91,NW,308,0.0,0.0,80,0.00,,,0.00,Wunderground v.1.15,2013-09-01 06:43:00,
2013-08-31 23:48:00,65.1,58.8,29.91,NW,309,0.0,0.0,80,0.00,,,0.00,Wunderground v.1.15,2013-09-01 06:48:00,
2013-08-31 23:53:00,65.0,58.7,29.91,NW,317,0.0,0.0,80,0.00,,,0.00,Wunderground v.1.15,2013-09-01 06:53:00,
2013-08-31 23:58:00,64.9,58.6,29.91,NW,315,0.0,0.0,80,0.00,,,0.00,Wunderground v.1.15,2013-09-01 06:58:00,